SCP
0 0 0 0 0 0 0 0 0 0 0 0 0 0 0 0 0 0 0 0 0 0 0 0 0 0 0 0 0 0 0 0 0 0 0 0 0 0 0 0 0 0 0 0
0 0 0 0 0 0 0 0 0 0 0 0 0 0 0 0 0 0 0 0 0 0 0 0 0 0 0 0 0 0 0 0 0 0 0 0 0 0 0 0 0 0 0 0
0 0 0 0 0 0 0 0 0 0 0 0 0 0 0 0 0 0 0 0 0 0 0 0 0 0 0 0 0 0 0 0 0 0 0 0 0 0 0 0 0 0 0 0
0 0 0 0 0 0 0 0 0 0 0 0 0 0 0 0 0 0 0 0 0 0 0 0 0 0 0 0 0 0 0 0 0 0 0 0 0 0 0 0 0 0 0 0
0 0 0 0 0 0 0 0 0 0 0 0 0 0 0 0 0 0 0 0 0 0 0 0 0 0 0 0 0 0 0 0 0 0 0 0 0 0 0 0 0 0 0 0
0 0 0 0 0 0 0 0 0 0 0 0 0 0 0 0 0 0 0 0 0 0 0 0 0 0 0 0 0 0 0 0 0 0 0 0 0 0 0 0 0 0 0 0
0 0 0 0 0 0 0 0 0 0 0 0 0 0 0 0 0 0 0 0 0 0 0 0 0 0 0 0 0 0 0 0 0 0 0 0 0 0 0 0 0 0 0 0
0 0 0 0 0 0 0 0 0 0 0 0 0 0 0 0 0 0 0 0 0 0 0 0 0 0 0 0 0 0 0 0 0 0 0 0 0 0 0 0 0 0 0 0
0 0 0 0 0 0 0 0 0 0 0 0 0 0 0 0 0 0 0 0 0 0 0 0 0 0 0 0 0 0 0 0 0 0 0 0 0 0 0 0 0 0 0 0
0 0 0 0 0 0 0 0 0 0 0 0 0 0 0 0 0 0 0 0 0 0 0 0 0 0 0 0 0 0 0 0 0 0 0 0 0 0 0 0 0 0 0 0
0 0 0 0 0 0 0 0 0 0 0 0 0 0 0 0 0 0 0 0 0 0 0 0 0 0 0 0 0 0 0 0 0 0 0 0 0 0 0 0 0 0 0 0
0 0 0 0 0 0 0 0 0 0 0 0 0 0 0 0 0 0 0 0 0 0 0 0 0 0 0 0 0 0 0 0 0 0 0 0 0 0 0 0 0 0 0 0
0 0 0 0 0 0 0 0 0 0 0 0 0 0 0 0 0 0 0 0 0 0 0 0 0 0 0 0 0 0 0 0 0 0 0 0 0 0 0 0 0 0 0 0
0 0 0 0 0 0 0 0 0 0 0 0 0 0 0 0 0 0 0 0 0 0 0 0 0 0 0 0 0 0 0 0 0 0 0 0 0 0 0 0 0 0 0 0
0 0 0 0 0 0 0 0 0 0 0 0 0 0 0 0 0 0 0 0 0 0 0 0 0 0 0 0 0 0 0 0 0 0 0 0 0 0 0 0 0 0 0 0
0 0 0 0 0 0 0 0 0 0 0 0 0 0 0 0 0 0 0 0 0 0 0 0 0 0 0 0 0 0 0 0 0 0 0 0 0 0 0 0 0 0 0 0
0 0 0 0 0 0 0 0 0 0 0 0 0 0 0 0 0 0 0 0 0 0 0 0 0 0 0 0 0 0 0 0 0 0 0 0 0 0 0 0 0 0 0 0
0 0 0 0 0 0 0 0 0 0 0 0 0 0 0 0 0 0 0 0 0 0 0 0 0 0 0 0 0 0 0 0 0 0 0 0 0 0 0 0 0 0 0 0
0 0 0 0 0 0 0 0 0 0 0 0 0 0 0 0 0 0 0 0 0 0 0 0 0 0 0 0 0 0 0 0 0 0 0 0 0 0 0 0 0 0 0 0
0 0 0 0 0 0 0 0 0 0 0 0 0 0 0 0 0 0 0 -0 0 0 0 0 0 0 0 0 0 0 0 0 0 0 0 0 0 0 0 0 0 0 0 0
0 0 0 0 0 0 0 0 0 0 0 0 0 0 0 0 0 0 0 0 0 0 0 0 0 0 0 0 0 0 0 0 0 0 0 0 0 0 0 0 0 0 0 0
0 0 0 0 0 0 0 0 0 0 0 0 0 0 0 0 0 0 0 0 0 0 0 0 0 0 0 0 0 0 0 0 0 0 0 0 0 0 0 0 0 0 0 0
0 0 0 0 0 0 0 0 0 0 0 0 0 0 0 0 0 0 0 0 0 0 0 0 0 0 0 0 0 0 0 0 0 0 0 0 0 0 0 0 0 0 0 0
0 0 0 0 0 0 0 0 0 0 0 0 0 0 0 0 0 0 0 0 0 0 0 0 0 0 0 0 0 0 0 0 0 0 0 0 0 0 0 0 0 0 0 0
0 0 0 0 0 0 0 0 0 0 0 0 0 0 0 0 0 0 0 0 0 0 0 0 0 0 0 0 0 0 0 0 0 0 0 0 0 0 0 0 0 0 0 0
0 0 0 0 0 0 0 0 0 0 0 0 0 0 0 0 0 0 0 0 0 0 0 0 0 0 0 0 0 0 0 0 0 0 0 0 0 0 0 0 0 0 0 0
0 0 0 0 0 0 0 0 0 0 0 0 0 0 0 0 0 0 0 0 0 0 0 0 0 0 0 0 0 0 0 0 0 0 0 0 0 0 0 0 0 0 0 0
Wind_Speed
10 10 10 10 10 9 10 10 11 11 11 9 6 5 3 3 3 5 7 8 9 9 8 8 8 8 7 7 7 7 7 5 4 3 3 3 2 1 0 1 2 2 2 2
12 12 12 13 12 12 11 11 12 12 11 7 6 4 3 3 3 4 6 8 9 10 10 10 10 9 8 8 8 7 7 6 5 3 3 3 2 2 1 1 1 1 1 1
11 12 13 11 8 8 8 8 8 9 8 7 6 5 4 2 2 3 4 6 8 9 10 10 11 10 9 9 8 8 7 7 6 5 4 3 3 2 2 2 1 1 1 1
10 12 13 6 3 4 6 7 7 6 6 7 6 5 1 1 1 2 3 4 6 8 9 10 10 10 9 9 8 8 8 7 7 6 5 4 3 3 3 2 2 2 2 1
9 11 11 7 4 4 4 6 7 7 7 8 8 5 1 3 2 2 2 3 4 6 7 9 9 10 10 10 9 8 8 8 8 7 6 5 5 4 3 2 2 2 2 2
8 10 11 6 5 4 4 3 8 8 9 9 9 5 5 7 3 3 1 1 2 4 5 7 8 9 10 10 10 9 8 8 8 7 7 6 5 4 3 3 3 2 2 2
9 11 7 5 6 5 3 6 9 10 10 10 8 7 8 8 5 4 2 1 2 3 4 5 7 9 9 9 10 9 9 8 7 7 7 6 5 3 3 3 3 2 2 2
8 9 4 7 6 6 7 9 10 11 10 10 10 9 9 8 6 5 3 1 2 3 3 4 6 8 8 8 8 9 9 8 7 7 6 6 5 4 3 3 3 3 3 3
7 6 5 6 6 7 9 11 11 11 11 11 11 10 10 9 7 4 3 2 2 3 4 4 6 7 8 7 8 9 9 8 7 7 6 5 5 4 3 3 2 2 2 2
12 10 10 9 10 10 11 11 12 11 12 12 12 12 11 9 8 6 4 3 3 4 5 5 6 7 7 7 9 10 10 9 8 7 6 5 4 3 3 2 2 1 1 1
15 12 12 10 12 14 14 14 13 12 12 12 12 12 11 10 9 7 5 4 4 5 6 6 6 7 7 8 10 10 10 9 8 7 7 6 5 3 3 3 2 2 1 2
10 11 11 12 13 15 15 14 14 14 13 12 12 12 12 11 9 8 8 6 5 6 6 7 7 7 8 9 10 11 10 9 7 6 6 7 7 5 8 6 8 8 7 6
11 13 13 14 14 14 14 15 14 14 14 13 12 11 12 11 9 9 9 8 7 7 7 7 7 8 8 9 10 10 9 9 7 7 8 8 8 8 6 5 8 8 8 8
10 11 12 12 12 13 14 14 14 13 13 13 12 11 11 11 11 11 10 10 9 8 7 7 8 8 8 9 10 10 9 10 9 7 8 8 8 8 7 7 6 3 4 6
9 10 11 11 12 12 12 13 13 13 13 13 12 12 12 12 12 12 12 11 10 8 8 7 8 7 7 8 9 10 8 7 8 7 7 7 7 7 7 8 7 6 5 3
10 10 10 11 12 13 13 13 13 13 13 13 13 13 13 13 12 12 12 10 10 10 8 8 8 6 6 7 8 7 7 11 10 8 7 7 7 7 7 7 8 7 7 6
8 9 10 11 12 13 13 13 13 13 13 13 14 14 13 13 13 12 12 11 11 10 9 7 6 5 6 7 7 6 6 8 12 8 7 7 7 7 7 7 7 6 6 7
7 9 10 12 12 13 14 14 13 14 14 14 14 14 13 13 13 13 12 13 12 10 8 6 5 5 6 7 6 6 7 7 7 7 7 7 7 6 6 7 7 8 6 6
9 10 11 12 13 13 13 14 14 14 14 13 13 13 13 13 13 13 13 12 11 10 8 5 6 6 6 7 6 5 7 8 7 6 6 9 8 7 7 7 7 8 8 6
10 11 13 14 14 14 13 13 14 13 12 12 13 13 13 13 12 12 12 11 8 7 7 6 6 6 7 8 7 5 7 8 8 7 7 7 7 7 7 7 8 8 8 7
11 12 13 14 14 14 14 14 13 12 12 12 12 12 12 13 12 11 10 10 9 7 6 6 5 4 5 6 8 5 7 8 8 8 8 8 7 8 8 8 8 8 7 7
11 12 13 14 14 14 13 13 13 13 12 11 11 11 11 12 12 11 10 8 8 7 5 3 3 5 6 7 5 5 6 7 7 7 7 7 7 8 8 8 8 7 7 7
12 13 13 14 14 15 15 13 13 11 10 10 10 10 9 9 8 8 9 7 6 7 5 3 4 5 7 5 4 5 6 7 7 7 7 7 7 7 8 9 7 7 7 7
13 13 13 14 14 14 14 13 12 10 10 8 8 8 8 7 7 6 6 8 9 8 5 4 4 6 7 3 4 5 5 6 6 6 7 7 6 7 7 8 8 7 8 8
13 13 14 13 13 10 11 12 11 10 9 7 7 7 6 5 6 7 6 6 8 7 4 4 5 7 5 3 4 4 5 5 6 6 6 6 7 7 7 7 8 8 7 7
13 11 10 11 10 8 8 8 7 7 6 6 5 5 5 5 6 6 5 5 6 6 4 2 3 4 3 3 4 5 5 6 7 6 6 6 7 7 7 7 9 7 7 7
12 11 8 8 7 7 7 7 7 7 6 6 6 5 6 6 6 6 6 4 4 3 2 2 2 2 2 3 4 5 5 6 6 6 6 6 6 6 7 8 7 7 7 7
Wind_Direction
297 297 294 286 284 276 267 269 277 289 296 305 311 304 282 252 214 192 186 184 179 176 179 178 180 183 182 176 171 171 169 180 190 189 169 166 162 170 223 332 342 353 11 16
293 292 292 284 276 267 264 265 270 278 283 296 303 306 295 260 234 209 197 196 190 184 184 184 185 186 184 178 176 174 174 178 176 184 168 166 174 179 193 205 306 346 1 9
298 302 294 281 282 281 280 284 285 287 300 315 312 306 299 285 239 226 215 206 198 192 188 187 189 186 182 179 176 177 177 175 173 181 176 175 185 181 193 193 215 265 282 293
291 293 284 294 304 291 292 293 300 306 325 331 317 305 325 336 288 237 227 216 202 196 188 184 186 180 174 171 174 179 179 174 172 175 177 177 184 193 203 205 195 204 226 227
279 283 285 294 316 337 324 321 348 345 353 352 345 326 343 5 342 293 245 227 211 200 188 182 183 176 171 173 177 180 179 176 174 175 178 180 187 194 197 211 217 204 209 221
272 283 288 320 6 2 309 323 14 7 6 359 356 345 343 351 347 325 297 239 219 201 192 183 179 171 173 178 180 182 178 178 177 173 171 179 188 190 187 197 211 213 217 213
267 274 284 7 11 343 321 11 11 9 7 4 354 343 336 342 345 327 316 270 230 207 198 187 173 167 178 183 187 179 170 171 168 163 168 176 181 182 193 198 197 204 219 218
281 277 295 29 10 9 357 358 3 359 357 352 342 337 337 336 332 320 311 269 231 224 210 191 175 172 183 191 181 161 156 160 164 166 175 175 169 183 196 186 193 213 219 217
305 318 350 5 8 3 357 350 352 351 348 343 336 332 330 325 319 305 289 266 234 232 221 203 189 182 190 187 163 153 155 163 168 169 170 161 163 176 186 186 194 211 197 184
305 310 328 340 350 355 354 345 342 341 338 336 331 327 325 322 317 305 281 259 235 227 222 216 203 194 195 175 162 159 163 168 171 174 167 158 154 161 161 168 181 194 171 145
297 311 322 337 349 348 343 339 335 332 328 327 324 321 320 316 313 309 295 273 241 230 226 222 212 203 193 177 169 171 172 174 176 172 160 149 122 84 110 83 105 127 105 88
298 322 320 324 336 339 335 334 332 329 326 324 322 318 316 312 311 307 301 286 268 243 232 227 219 210 195 185 178 180 181 179 173 164 154 145 133 107 64 87 89 86 90 102
316 325 319 320 328 333 330 328 327 325 322 322 323 322 318 313 312 309 303 293 275 259 241 232 225 213 199 190 186 188 184 175 167 164 161 158 154 150 141 95 76 80 92 104
328 327 320 326 326 329 328 326 323 320 321 323 322 320 318 315 313 309 302 295 286 271 255 237 228 217 201 191 187 191 187 177 167 164 162 164 163 161 157 157 151 128 105 124
328 325 320 321 322 324 325 325 324 323 323 322 321 320 319 316 311 307 304 300 294 278 260 246 234 219 195 190 189 189 184 172 165 161 161 163 161 160 160 160 151 145 142 147
325 323 322 323 323 325 324 322 320 318 319 319 318 318 316 311 307 305 303 301 295 282 268 254 240 217 191 188 189 187 182 173 162 159 162 161 161 162 160 155 152 155 159 159
319 320 322 321 320 320 320 318 315 314 314 315 315 314 313 312 310 308 305 302 293 284 272 256 241 213 194 190 187 182 169 167 165 163 165 165 163 163 159 155 155 153 149 153
314 312 312 312 313 314 313 312 311 312 312 312 313 313 312 311 308 306 303 303 297 289 275 256 235 213 198 191 189 184 169 165 169 168 163 161 161 158 154 153 150 141 138 147
312 310 309 307 306 304 305 306 306 306 306 307 308 309 308 306 306 305 304 300 293 286 278 261 235 219 202 191 186 181 169 165 168 166 160 158 159 157 155 153 147 143 146 150
308 309 308 307 306 305 304 303 303 303 303 305 305 305 305 306 306 305 302 294 284 280 281 268 241 219 201 188 183 182 172 168 170 167 161 162 163 158 154 150 146 147 151 153
300 303 304 304 304 304 302 302 301 301 302 302 301 301 302 304 305 304 300 296 292 289 282 259 237 222 199 185 182 185 176 172 171 167 163 163 162 155 152 149 149 150 151 150
296 299 301 301 301 302 302 302 300 299 299 298 299 300 303 304 304 302 295 292 295 293 282 254 240 220 202 184 187 184 175 171 166 160 159 160 159 155 153 150 149 148 147 145
295 298 301 302 302 302 303 303 302 301 300 302 303 304 303 300 298 297 298 301 303 298 290 263 249 218 195 183 183 178 172 167 162 158 157 157 155 152 150 147 145 143 143 141
299 300 300 300 301 301 301 303 304 305 304 304 302 301 302 302 301 300 299 308 313 304 291 262 228 194 176 183 177 172 169 161 154 152 151 150 148 146 145 143 141 140 140 139
296 295 296 299 299 299 301 305 305 305 305 302 301 302 300 296 298 303 305 305 306 301 293 258 221 195 185 182 172 164 158 153 148 145 146 145 142 142 141 140 140 140 140 140
293 292 291 291 293 294 296 297 298 299 301 303 304 306 306 303 301 302 302 303 303 299 294 266 220 203 193 176 164 154 149 148 146 143 143 140 137 137 138 139 138 138 138 138
290 290 288 288 290 292 295 296 297 298 299 302 304 308 311 310 306 303 302 304 306 299 292 270 222 213 191 158 148 145 143 142 140 138 137 135 135 135 136 137 136 136 135 137